SL-8 DEB, 1478

Orbit data source: Space-Track

SL-8 DEB, 1478 is space debris in LEO originally from a launch on Mon, 15 Mar 1965 UTC launched from the Tyuratam Missile And Space Complex (TTMTR). Debris objects in space refer to the collection of defunct objects orbiting the Earth. Examples of debris include non-operational satellites, rocket bodies, and fragments generated from explosions, collisions, or faulty payload assembly.

Loading next visibility...
Identifier
1478, 1965-020BC
Orbit
LEO
Country
Flag of CISCIS
Related business
Manufacturer
Unknown
Mission
Spacecraft
Bus & Motor
Unknown
Mass
Unknown
Launch date (UTC)
1965-03-15 (61 years ago)
Launch vehicle
Unknown
Launch site
Tyuratam Missile And Space Complex (TTMTR)
Object type
Payload
Rocket body
Debris
Shape & HBR
Unknown shape, 0.1 m
Radar Cross Section
Medium (>0.1 m² and <1 m²)

Expand to show TLE details & history
Last TLE update: 22 hours ago

TLE from 22 hours ago
0 SL-8 DEB
1 01478U 65020BC  25347.42597672  .00004065  00000-0  19686-2 0  9993
2 01478  56.0806 236.7751 0588422 291.1051  62.7986 13.55048358899686
Epoch: 2025-12-13T10:13Z
TLE epoch observation values (Epoch: 2025-12-13T10:13:24.388Z)
Latitude
0.00003°
Longitude
1.07008°
Altitude
876.131 km
Speed
7.504 km/s
True Right ascension
15h 47m 06s
True Declination
0° 00' 00"
Sunlit
Object was in daylight at epoch
Visualization orbit readout
Latitude
Unknown
Longitude
Unknown
Altitude
Unknown
Speed
Unknown
Apparent Right ascension
Unknown
Apparent Declination
Unknown
Sunlit
N/A
Visualization observer readout
Local Sidereal Time
06:50:06
Azimuth
Unknown
Elevation
Unknown
Doppler factor
Unknown
Orbital elements
Apogee altitude
1,490.848 km
Perigee altitude
616.254 km
Semi-major axis
7,431.688 km
Eccentricity
0.05884
Inclination
56.0806°
RAAN
236.7751°
Arg. of periapsis
291.1051°
True anomaly
68.99192°
Mean anomaly
62.7986°
Eccentric anomaly
65.87555°
Mean motion
3.38775 °/min
Orbital period
106.27 mins
BSTAR
0.0019686
Loading maneuver chart data...
Computing Atmospheric mass density...
Loading historical data...
Loading historical data...
Loading historical data...
Loading historical data...
Loading historical data...
Loading historical data...
Loading historical data...

Documentation

Showing up to 5 results
|